Theta_e
312 316 318 321 323 323 326 327 327 326 322 318 317 318 321 322 321 321 320 322 325 326 327 328 327 327 327 326 325 330 333 332 333 336 342 342 337 339 340 341 342 341 341 335 332 333 333 334 333 329 328 326 322 323 325 326 332 335 336 336 336 337 338 336 336 334 334 334 334 334 333 333 332 332 333 333 332 333 332 331 330 330 330 330 331 331 331 331 331 331 330 330 330 331 331 330 329
312 316 320 323 324 324 327 327 325 323 319 315 316 318 321 322 322 319 319 323 324 324 327 327 326 326 324 324 323 328 334 335 336 339 340 339 339 340 340 341 341 342 339 334 334 333 332 334 332 330 329 326 322 320 321 326 332 334 335 336 336 337 338 337 336 334 333 334 334 334 333 333 332 332 332 331 331 332 333 332 332 331 331 331 331 331 331 331 331 330 330 330 329 329 329 329 328
311 316 323 325 325 324 326 326 322 319 316 314 316 320 321 321 322 321 322 323 324 325 328 328 326 325 323 325 324 329 335 335 336 337 338 338 339 339 340 341 341 341 339 337 338 335 332 333 333 331 329 326 323 320 320 325 330 333 335 336 336 337 337 336 336 334 334 333 333 333 333 332 332 331 331 331 331 332 333 333 333 332 331 330 331 331 330 330 330 330 330 330 329 329 328 328 328
312 318 325 326 329 326 325 326 323 319 316 314 315 320 321 322 325 324 324 324 325 327 328 328 327 326 326 325 324 332 336 335 335 336 338 338 338 339 340 340 340 341 340 340 340 335 331 333 333 330 329 327 325 321 320 323 328 333 335 336 336 336 337 337 336 334 334 334 333 333 332 332 332 331 330 331 332 332 333 333 333 332 331 330 330 330 330 330 330 330 330 330 330 329 329 328 328
315 320 323 325 330 327 325 327 325 321 316 315 315 319 322 324 326 325 325 325 326 328 328 328 328 325 326 327 328 333 336 335 335 335 337 337 337 339 339 340 340 340 340 340 340 336 331 332 332 331 329 328 325 322 320 321 326 331 334 335 335 334 336 336 336 335 334 334 333 332 333 332 332 331 330 332 332 332 332 332 332 333 332 331 331 331 331 330 330 330 329 330 329 329 329 328 328
318 322 323 324 328 325 325 324 322 320 317 318 318 319 323 324 325 324 325 325 326 327 326 327 326 325 327 329 332 334 336 336 335 336 338 337 337 338 338 340 340 340 340 340 340 334 331 332 332 331 329 327 325 323 321 321 325 331 333 334 334 334 335 336 336 335 334 334 333 333 333 331 331 331 330 331 331 330 330 330 332 332 332 332 331 331 331 330 329 329 329 329 329 330 330 328 328
320 325 325 325 325 324 326 322 320 320 318 320 319 319 323 324 324 323 324 324 324 324 324 327 324 327 330 329 332 335 338 337 336 338 337 337 338 338 337 339 340 340 340 340 339 332 330 332 332 332 329 328 326 324 322 322 324 329 332 333 333 333 334 335 335 335 334 333 333 333 332 329 329 330 330 330 330 329 329 329 331 332 332 331 330 330 331 330 329 328 328 328 328 329 329 328 328
320 326 328 326 325 324 325 323 322 321 318 318 319 320 323 323 323 322 323 322 322 323 323 325 324 326 327 329 334 335 339 339 338 337 337 337 338 338 337 338 340 340 340 340 338 331 330 332 333 332 330 329 326 325 324 322 323 325 329 333 333 333 333 335 335 335 334 333 333 332 330 328 327 329 330 329 329 329 330 330 331 331 331 330 329 329 330 330 329 329 329 327 326 327 328 328 328
320 326 328 325 327 324 322 323 322 319 318 317 318 320 323 322 322 321 322 322 321 322 323 324 324 324 324 331 334 334 338 339 337 336 337 338 338 338 336 337 340 340 339 341 337 330 330 331 333 333 331 330 327 325 324 323 323 322 326 331 333 332 332 333 334 335 334 332 332 331 330 330 329 329 330 329 329 329 329 330 331 331 331 330 330 330 330 330 329 329 329 327 326 327 327 327 327
323 325 326 325 326 322 319 321 321 319 318 318 317 319 322 321 321 321 321 321 320 321 323 323 323 322 324 332 336 336 337 338 337 336 337 338 338 337 335 336 339 339 340 340 335 329 329 330 333 335 332 331 328 326 325 324 324 322 324 329 331 330 330 332 334 334 333 331 331 331 331 330 330 329 329 329 328 328 329 330 331 331 330 330 329 329 329 329 329 329 328 327 326 327 327 326 327
327 324 325 325 322 320 318 319 320 319 318 318 318 319 321 322 321 321 321 320 320 322 323 322 322 321 324 333 337 337 336 337 337 337 338 338 338 337 335 336 338 339 340 340 335 329 328 328 332 335 333 332 329 327 326 325 324 323 322 324 326 328 329 331 331 331 331 331 331 332 331 330 329 329 328 327 328 329 330 330 330 330 329 329 329 329 329 329 329 328 328 327 327 327 326 325 326
328 326 325 325 322 321 320 320 320 320 319 318 319 319 320 322 321 321 321 320 320 323 323 321 321 319 322 333 337 336 336 337 337 337 337 337 338 337 336 336 337 339 339 340 339 332 327 327 331 333 333 333 331 329 327 326 325 324 322 320 322 325 326 326 325 326 328 328 328 329 330 329 329 329 326 326 328 330 331 330 329 330 329 329 328 328 328 328 327 327 328 328 327 327 325 325 326
327 330 326 323 324 324 322 320 321 321 320 318 318 319 320 321 321 322 320 320 320 320 322 321 321 319 325 335 337 336 336 336 337 337 337 337 337 337 336 336 336 338 339 340 340 335 329 328 329 330 332 333 333 331 329 327 325 325 324 321 320 321 323 322 320 321 324 324 324 325 327 327 329 328 326 326 328 329 330 330 329 329 328 328 327 327 327 327 327 327 327 327 327 327 326 326 326
326 330 326 325 326 325 323 320 321 320 318 319 319 319 320 320 320 321 320 319 319 320 320 319 320 319 325 334 337 337 337 336 337 336 337 337 336 337 336 336 336 338 338 339 340 338 334 331 329 329 331 332 333 333 331 329 326 325 325 324 322 320 320 321 319 319 321 322 322 322 323 325 327 328 326 325 327 328 329 329 329 328 327 326 325 326 326 326 327 327 327 327 327 326 326 326 326
325 328 328 328 326 323 323 321 321 319 318 320 319 319 320 319 320 320 319 319 318 319 319 319 320 319 325 332 335 337 337 336 336 336 336 336 337 337 336 335 336 337 337 338 339 339 338 336 333 331 331 332 332 333 332 331 329 326 325 325 325 321 319 319 319 319 320 321 321 321 321 322 325 328 326 325 326 327 328 329 329 328 327 325 325 326 325 325 326 327 327 327 326 325 326 326 326
323 326 328 327 323 322 322 323 321 318 319 320 319 319 320 318 319 319 317 317 318 319 318 320 319 320 331 335 333 336 337 337 336 336 335 336 337 337 337 336 336 337 335 337 338 338 339 339 337 334 332 333 334 334 333 332 330 328 326 325 325 324 321 319 319 319 319 319 320 320 320 320 322 326 326 325 325 326 327 328 328 328 327 325 325 326 325 325 325 326 326 326 325 325 326 326 326
323 324 327 324 322 321 321 322 320 318 319 319 318 319 319 318 318 317 316 316 317 317 318 320 320 324 336 339 336 337 337 336 336 336 335 336 337 337 337 337 337 337 335 336 337 337 338 338 339 337 335 335 336 336 335 334 331 330 328 326 325 326 324 321 320 319 319 319 319 319 320 319 320 325 326 326 326 325 326 327 328 327 326 324 324 325 325 324 325 325 325 325 325 326 326 326 326
325 326 325 323 323 322 320 320 318 319 320 318 319 318 318 318 317 316 316 317 317 317 317 319 323 326 334 338 337 338 336 336 336 336 336 336 336 337 337 337 337 337 336 336 337 336 337 338 339 338 337 338 338 338 337 335 333 331 330 329 326 326 326 324 321 320 320 319 320 323 325 324 324 327 326 324 326 325 325 326 326 326 325 323 322 322 323 322 323 323 324 324 325 325 325 325 326
324 327 324 323 324 321 319 319 317 319 319 318 319 318 318 318 317 317 316 317 316 316 317 318 323 324 330 338 337 337 336 336 336 335 335 335 335 336 337 337 337 337 337 337 337 336 336 337 338 338 338 338 338 338 338 337 334 332 331 331 328 328 326 325 325 323 322 320 323 327 328 326 326 328 325 323 324 323 324 324 324 324 323 322 321 320 320 321 321 322 324 324 325 325 325 325 325
321 323 324 325 323 320 318 317 317 318 318 317 318 318 318 318 316 316 316 317 316 315 316 316 322 324 328 337 337 336 337 336 336 335 334 334 335 335 336 336 336 336 337 337 337 337 336 337 338 338 338 338 338 338 338 337 335 333 333 333 330 330 327 327 329 327 327 323 325 328 328 327 327 327 325 324 323 321 322 323 323 323 321 321 321 320 319 320 321 322 322 322 324 325 326 325 324
320 321 323 323 320 319 317 316 317 318 318 317 318 318 318 317 316 316 315 316 315 315 316 315 318 323 327 335 337 335 337 336 336 336 335 335 335 334 335 336 336 336 337 336 337 337 337 337 337 338 338 338 338 338 338 337 336 335 335 334 333 332 328 329 331 328 329 327 326 329 328 328 327 327 324 321 324 323 321 321 322 322 321 321 322 321 319 320 321 321 321 322 323 324 325 325 324
319 320 320 319 319 318 315 315 317 317 318 317 318 318 317 317 315 315 315 315 316 314 316 316 316 323 327 333 337 335 335 336 336 336 335 335 335 335 335 335 335 335 335 336 336 337 337 337 337 337 338 338 338 337 338 337 337 336 336 336 334 333 330 330 331 329 330 329 327 329 329 327 327 327 321 318 325 326 322 321 322 324 323 322 323 323 321 320 321 321 322 323 323 323 324 324 324
318 320 318 317 318 316 315 315 316 317 318 317 318 317 316 316 315 316 315 315 316 315 316 319 321 324 325 331 335 335 335 335 335 336 336 336 336 335 335 335 335 335 335 335 335 336 336 337 337 337 338 338 337 337 337 337 337 336 336 336 334 333 331 330 331 329 330 329 327 329 329 327 327 327 321 321 326 326 324 323 323 325 324 322 322 324 323 321 322 322 322 323 323 323 323 323 323
317 318 318 317 316 315 314 314 314 316 316 316 317 317 316 315 315 315 316 315 315 315 315 318 324 325 326 330 332 333 335 335 335 336 337 337 336 336 336 336 336 335 335 335 335 335 335 336 336 337 338 338 337 337 337 336 336 336 336 336 335 334 332 330 331 330 330 329 328 328 328 326 327 327 324 324 327 326 325 325 324 325 325 323 322 323 324 322 321 322 323 323 323 322 322 320 320
316 317 317 316 315 314 313 313 314 315 314 315 316 317 316 315 315 315 316 316 315 317 317 318 323 326 329 331 331 333 334 335 335 336 337 337 337 337 337 337 337 337 336 336 335 335 335 335 336 336 337 337 338 337 337 337 335 335 336 336 335 334 333 331 330 330 330 329 328 328 328 327 327 327 327 326 326 326 325 325 325 325 324 323 323 323 323 321 320 322 323 322 322 321 321 320 319
316 316 317 315 314 314 313 313 313 314 314 314 315 316 316 314 314 316 316 316 316 319 321 320 322 325 328 330 331 332 333 335 335 336 337 337 338 337 337 337 337 337 337 337 336 335 335 335 335 336 336 337 337 337 337 337 336 335 336 336 335 334 333 331 330 331 330 329 328 328 328 327 327 327 327 326 325 325 325 325 325 325 324 323 323 322 320 318 319 322 322 322 321 322 322 322 321
316 316 316 315 314 314 314 314 313 314 314 314 315 316 315 314 314 316 316 317 317 318 320 320 321 322 324 327 328 329 331 333 334 335 336 337 338 337 337 337 337 338 337 337 336 336 335 335 335 335 336 336 337 337 336 336 336 336 336 336 335 334 333 332 331 331 331 329 328 328 328 327 328 327 327 327 326 325 325 324 323 323 322 322 322 320 319 319 320 322 321 321 321 321 321 321 321
316 316 315 315 314 314 314 314 313 314 314 313 315 316 315 314 315 315 316 316 316 316 317 319 320 320 322 325 327 327 328 331 333 334 335 336 337 337 337 337 338 338 338 337 337 337 336 335 335 335 336 336 336 337 336 336 336 336 336 336 336 334 334 332 331 331 331 329 328 328 328 328 327 327 327 327 326 325 324 324 322 321 321 321 320 319 318 318 320 322 321 321 321 321 320 321 321
315 316 316 315 314 314 314 314 314 315 314 313 314 315 315 316 316 315 316 315 315 316 315 317 319 319 321 322 326 328 326 328 331 332 334 335 336 337 338 337 338 338 338 338 337 337 337 336 335 335 336 336 336 337 336 336 336 336 336 336 336 335 334 333 331 331 331 329 328 329 329 328 328 327 327 327 327 326 325 324 322 321 320 320 320 319 318 317 317 319 320 320 320 320 320 320 320
315 315 315 315 315 315 315 315 314 315 314 314 314 315 316 317 316 316 316 315 315 315 315 317 318 318 319 320 325 329 327 326 330 332 333 334 336 337 337 337 338 337 337 338 338 337 337 336 335 335 335 336 336 336 336 336 336 336 336 336 336 335 334 333 332 331 332 330 328 328 328 328 328 327 327 327 327 326 325 324 323 322 321 321 320 320 319 317 315 315 316 317 318 318 318 318 319
314 314 315 317 316 314 316 315 314 315 314 314 314 314 316 316 316 316 315 315 314 315 315 316 318 318 318 320 325 329 328 326 329 332 332 334 336 336 336 337 337 337 337 336 337 337 337 336 336 335 335 335 336 336 336 336 336 336 336 336 336 336 335 334 333 332 332 331 329 328 328 327 328 327 327 327 327 326 325 324 323 323 323 322 322 322 321 319 315 312 313 315 316 316 317 317 317
313 314 315 317 316 315 316 315 314 315 314 313 314 314 315 315 315 315 314 315 315 315 316 316 317 318 317 321 325 328 328 326 327 331 332 333 334 335 335 335 336 336 336 335 335 336 337 336 336 336 335 335 336 336 336 336 336 336 336 336 336 336 335 334 333 333 332 331 330 330 328 327 327 327 327 327 327 326 326 324 323 324 324 323 324 324 324 322 317 314 313 315 316 316 316 316 317
314 315 315 316 315 315 316 314 315 316 314 313 314 314 315 315 314 314 313 314 314 315 315 316 317 317 318 320 323 324 325 326 327 329 331 333 332 333 333 333 334 334 334 334 334 336 336 336 336 336 335 334 334 334 335 336 336 335 335 336 336 335 335 335 334 333 332 331 331 330 330 328 326 327 327 326 326 326 326 325 324 324 324 324 324 324 325 324 319 316 315 315 316 316 317 317 317
314 314 315 316 314 314 315 314 315 316 316 314 314 315 315 315 315 314 314 314 314 314 315 316 316 317 318 320 320 320 321 324 327 326 328 330 331 332 332 332 332 333 334 333 333 335 336 336 336 336 335 334 334 334 334 335 335 335 335 334 335 335 335 335 334 333 332 332 331 330 330 329 327 328 328 327 327 326 326 325 324 324 324 324 324 324 325 325 322 318 316 316 315 316 317 317 317
315 314 314 316 315 314 315 315 315 316 315 315 315 314 314 315 315 314 314 314 314 314 315 315 316 316 318 319 318 318 319 320 322 323 325 327 329 331 332 332 332 333 333 333 333 335 335 335 336 335 335 335 334 334 333 334 334 334 334 334 334 334 334 335 334 333 332 332 332 331 330 330 329 329 329 329 328 327 327 326 325 324 324 325 323 323 324 325 324 320 317 316 316 316 315 316 317
315 315 313 316 316 314 315 315 314 315 315 315 315 314 314 314 314 315 314 314 314 314 315 316 316 317 317 319 318 318 320 319 317 319 323 324 327 329 331 333 333 333 334 334 335 335 334 335 336 335 335 334 334 334 334 333 333 334 333 333 333 333 334 334 334 334 333 332 331 331 330 330 330 330 329 329 329 328 327 327 326 325 324 324 324 323 323 324 325 323 320 317 316 316 316 315 316
315 315 312 315 317 314 315 316 314 314 315 315 315 315 315 315 315 316 315 315 315 315 316 317 318 318 319 319 319 320 321 319 316 316 320 322 324 326 329 331 332 333 334 335 335 336 335 335 335 335 334 334 334 333 334 333 333 333 332 332 332 332 333 334 334 334 333 332 331 331 330 330 330 329 330 330 329 328 328 328 327 326 325 325 325 324 325 324 324 324 323 320 317 316 316 316 316
314 315 314 315 317 314 314 315 313 314 315 315 315 315 315 315 315 316 316 315 315 316 316 317 317 318 319 319 320 322 320 320 322 320 318 320 323 324 327 329 330 331 333 334 334 335 335 335 335 336 334 334 334 333 333 333 332 332 332 332 331 331 332 332 333 333 333 332 331 331 330 331 330 330 330 328 328 329 329 328 328 327 327 327 326 325 325 324 323 323 323 320 318 317 317 317 317
315 316 315 314 316 315 314 315 313 313 314 315 317 317 316 316 316 316 316 316 315 316 316 316 318 317 318 318 319 321 320 323 328 325 319 318 321 323 325 327 327 328 329 331 332 332 334 334 335 336 335 334 334 333 333 333 332 332 332 331 331 331 331 331 332 332 332 332 332 331 330 330 330 330 329 327 327 328 328 328 328 328 327 327 326 325 324 323 322 322 323 321 319 318 318 318 317
317 316 314 315 317 315 314 315 314 313 313 315 317 318 317 315 316 316 316 316 316 317 318 318 319 319 318 318 319 321 321 324 329 328 322 318 318 321 323 325 326 326 327 327 329 330 331 332 333 334 335 334 333 333 333 332 332 332 331 331 331 331 331 331 331 331 331 331 331 332 331 330 330 330 329 329 328 328 327 328 328 327 327 327 326 324 323 323 323 322 322 321 320 318 318 319 318
318 319 318 319 319 317 317 316 314 314 315 316 316 316 319 316 314 315 314 316 316 316 319 319 321 323 322 323 325 326 326 324 327 328 324 317 316 318 319 320 322 324 325 325 326 327 328 330 331 332 333 334 333 333 333 333 332 332 332 332 332 331 331 331 331 331 331 331 331 331 331 331 331 331 330 329 328 327 327 328 327 327 327 327 326 324 324 324 324 323 323 321 320 319 319 319 318
316 322 321 319 319 318 319 318 316 315 317 318 316 317 323 322 315 315 314 315 316 316 319 319 322 326 326 327 328 330 331 329 328 328 325 318 316 317 317 316 317 319 322 323 324 324 325 327 328 329 331 333 333 332 332 332 332 332 332 332 332 332 332 332 332 332 331 331 331 331 331 331 331 330 330 329 328 327 328 329 329 328 327 326 325 324 325 324 324 324 324 322 321 321 320 318 317
312 322 324 319 322 324 322 322 319 316 317 318 317 317 322 322 317 317 318 317 317 317 320 321 320 322 323 324 323 325 326 327 327 326 324 320 317 317 316 316 315 315 316 318 321 323 324 325 326 327 329 331 332 331 331 331 332 332 332 332 332 332 332 332 332 332 332 331 331 332 332 331 331 330 330 329 329 329 329 329 329 328 327 326 326 325 325 325 325 324 323 322 321 321 319 317 317
317 325 327 321 324 327 325 324 320 318 318 318 318 318 319 321 319 318 319 318 318 318 319 321 319 317 319 321 321 322 322 325 327 327 324 320 316 316 316 316 315 315 314 314 316 320 323 325 325 326 328 329 330 331 331 330 331 332 332 332 332 331 331 330 331 331 332 332 331 331 331 331 331 331 330 328 328 328 328 328 328 327 327 327 326 326 326 326 325 323 322 320 320 320 319 318 318
322 325 326 324 324 326 325 322 319 320 320 319 320 319 317 320 320 318 319 317 317 318 317 318 318 317 319 321 322 323 324 324 324 326 324 319 316 316 315 316 315 314 314 313 313 315 320 323 325 326 327 328 329 330 331 330 330 331 331 331 331 330 330 329 329 330 330 330 330 330 330 330 331 331 330 329 328 328 328 327 327 326 326 327 327 327 326 326 325 323 322 321 321 321 321 320 318
322 322 324 326 325 324 322 321 320 319 321 323 323 319 316 320 320 316 317 317 317 318 316 318 320 322 324 325 324 323 324 324 323 322 320 317 316 316 314 314 314 314 313 313 313 313 316 321 324 325 326 327 328 329 330 330 329 330 330 330 330 329 329 329 329 329 329 329 329 329 328 328 329 329 329 329 328 328 328 328 327 327 327 327 327 327 326 326 326 324 324 324 324 323 321 319 318
323 323 323 324 322 322 320 321 319 317 322 325 323 320 316 319 321 317 316 317 317 317 316 318 321 323 324 325 324 321 320 323 324 322 318 315 316 315 314 313 312 312 312 312 312 312 314 317 321 323 326 327 327 328 329 330 329 329 330 330 329 329 329 329 329 329 329 328 328 328 328 328 328 328 328 328 329 329 329 329 329 328 328 327 326 326 326 326 326 325 324 324 324 323 322 321 319
324 324 322 321 320 320 319 319 318 319 323 321 318 321 319 317 319 317 315 315 314 315 316 318 321 323 323 323 322 319 318 319 320 322 320 318 316 313 312 311 311 312 312 311 311 311 312 314 317 320 323 325 326 327 328 329 329 328 328 328 328 328 328 328 328 328 328 329 328 328 330 330 330 329 329 329 329 329 329 328 327 327 326 326 326 326 326 325 324 324 324 324 324 323 322 321 319
323 322 319 322 322 319 318 320 320 321 321 315 313 318 320 317 315 314 315 315 314 315 317 320 321 322 324 324 322 321 321 319 319 322 323 323 319 314 311 311 313 314 312 310 310 311 311 312 314 317 320 323 325 325 326 327 328 327 327 327 327 327 327 327 327 327 328 328 328 328 328 329 328 328 328 328 328 328 327 326 325 325 325 325 325 325 325 324 324 324 323 323 323 322 321 320 319
320 319 318 323 323 317 318 321 321 321 318 315 314 316 318 318 315 315 315 313 315 317 318 321 320 319 322 323 321 322 323 322 323 324 325 326 321 316 315 315 316 315 313 312 312 313 312 312 314 316 318 321 323 324 325 326 326 326 325 325 326 326 326 326 326 326 327 327 327 326 326 326 326 326 325 326 326 326 326 325 325 325 325 324 324 324 323 323 322 322 322 321 321 320 320 320 319
320 321 320 321 321 320 319 320 324 325 318 314 314 317 321 320 316 318 317 315 318 318 316 319 319 318 320 321 320 322 324 324 324 325 326 324 320 319 319 318 318 317 315 315 315 315 315 315 315 316 318 320 322 323 323 324 324 324 324 324 325 326 326 326 326 326 326 325 325 324 324 324 323 323 323 323 324 324 323 323 324 324 324 323 322 322 322 321 320 320 320 320 320 320 319 319 319
320 322 321 320 322 326 323 318 320 324 320 317 317 320 324 320 316 319 319 318 319 317 316 317 317 318 319 321 322 322 324 325 325 326 327 323 318 318 319 318 319 318 317 317 317 318 318 317 317 318 319 321 321 322 322 323 323 323 323 323 324 325 325 325 325 325 324 323 323 323 323 323 322 322 322 322 322 322 322 321 321 321 321 321 321 320 320 320 319 319 319 318 318 318 317 317 317
318 320 321 320 322 326 324 316 314 316 317 319 320 320 319 315 316 319 317 318 318 316 317 316 316 318 319 323 325 325 327 326 325 327 328 322 317 317 319 318 318 318 317 318 318 319 319 319 320 320 320 321 320 320 321 321 322 322 322 322 323 324 323 324 324 324 323 322 322 322 322 322 322 321 321 321 321 321 321 321 320 319 318 318 317 317 318 318 318 318 318 317 316 315 315 315 315
318 321 320 317 317 320 319 315 315 315 314 317 320 319 316 313 316 319 314 316 317 316 315 315 317 320 321 326 329 329 328 324 322 323 323 320 316 317 318 317 318 318 318 318 318 320 320 321 321 320 319 319 318 318 319 319 321 321 321 321 322 323 322 322 322 322 321 320 320 321 322 321 321 321 321 321 321 321 320 320 319 318 317 317 316 315 316 317 317 317 316 316 316 315 315 315 314
317 319 320 318 318 319 316 313 317 320 316 317 321 319 316 315 315 315 313 315 317 317 314 313 317 319 321 327 329 326 324 322 322 323 323 321 317 316 317 316 317 318 318 318 318 320 320 321 321 319 318 317 316 316 317 319 319 319 319 320 320 320 320 319 319 319 319 319 319 320 320 320 320 320 320 320 319 319 318 317 315 315 315 315 315 315 315 315 315 315 315 314 314 313 313 312 312
316 317 317 318 319 320 320 316 319 324 318 317 320 319 321 324 318 314 315 314 315 317 317 315 317 318 320 327 329 325 323 323 323 323 325 322 317 316 316 315 315 316 316 316 317 318 319 320 320 319 318 316 315 315 317 318 318 317 317 317 317 318 318 317 317 318 319 320 320 319 319 319 319 318 318 317 317 316 315 314 313 313 312 312 312 313 313 313 313 313 313 312 312 311 311 310 309
315 316 315 316 316 317 320 319 319 322 318 317 317 316 322 324 318 315 315 315 318 321 322 321 319 319 322 327 330 328 324 322 322 323 325 321 314 313 314 313 313 313 314 315 316 316 317 318 318 318 318 317 317 317 318 318 318 318 318 317 317 318 318 318 318 318 319 319 319 318 317 317 316 316 315 314 313 312 312 311 311 310 310 310 311 311 310 310 310 310 310 310 310 310 310 310 309
318 315 314 315 315 316 319 320 320 317 316 319 316 316 323 322 316 317 316 316 321 322 324 325 320 320 323 325 326 326 322 319 319 322 323 318 313 312 312 312 312 312 312 314 314 315 315 316 316 316 317 317 317 317 318 318 318 318 318 318 318 318 318 318 318 317 317 316 316 315 314 314 313 312 311 310 310 309 309 309 308 309 309 309 309 309 308 308 308 308 308 308 308 309 308 308 307
Wind_Speed
9 8 9 9 8 9 8 3 2 2 2 4 1 3 2 5 6 6 6 5 4 4 3 6 6 5 2 3 6 9 8 6 3 1 2 7 15 15 17 22 22 20 19 18 17 16 14 12 11 11 11 11 11 12 13 15 16 16 15 12 11 12 13 14 15 15 16 16 16 17 17 16 16 16 17 17 17 18 19 19 19 19 18 18 19 19 19 19 20 19 20 19 19 18 16 16 17
10 9 7 8 8 5 3 2 2 3 3 3 2 5 4 4 5 7 6 5 6 4 3 6 5 4 2 2 4 7 9 9 7 5 8 14 15 15 18 20 20 20 19 18 17 15 14 12 11 11 11 11 11 13 14 16 17 16 16 12 10 12 12 13 14 15 16 16 16 16 16 16 16 16 16 16 16 16 17 18 18 18 18 18 18 18 18 19 19 19 19 19 19 18 17 16 16
11 8 6 7 6 4 2 1 2 4 3 2 4 4 5 4 4 8 7 8 9 5 5 5 4 2 1 2 3 5 6 8 11 8 9 16 13 15 19 18 20 19 18 18 15 15 15 13 11 11 11 11 11 12 14 15 15 15 15 12 9 11 12 13 14 15 15 15 16 16 15 15 15 15 16 14 14 15 16 17 17 17 17 17 18 18 18 18 18 18 19 18 18 17 17 17 17
9 7 7 7 3 3 2 2 3 4 3 1 4 4 5 6 7 10 9 10 8 5 5 4 3 2 3 4 4 5 6 6 10 10 8 14 15 18 21 19 19 19 19 18 15 14 15 13 11 11 11 11 10 11 13 13 14 14 14 12 9 10 11 12 13 14 15 15 15 15 15 15 15 15 15 13 12 13 14 15 16 17 17 17 17 17 17 17 17 17 18 18 17 17 17 17 19
8 6 7 5 1 1 1 2 3 3 2 1 3 4 5 10 10 10 8 8 7 5 4 4 1 2 2 4 3 3 5 6 10 12 11 16 20 20 21 20 19 18 18 17 15 14 15 14 11 12 11 10 10 11 12 13 14 14 14 12 8 9 11 12 12 13 14 14 14 14 15 14 14 14 14 13 12 12 12 13 14 16 17 17 16 16 16 16 17 16 17 16 16 16 16 18 20
7 7 6 4 1 1 1 3 4 2 3 3 4 3 7 11 10 10 8 6 5 3 2 2 1 3 3 4 5 4 2 6 10 12 15 20 22 21 21 20 18 17 17 17 14 15 16 14 12 12 11 10 10 11 12 12 13 13 14 11 9 9 11 11 12 12 14 14 14 14 14 13 13 13 13 13 12 12 11 10 12 15 16 16 15 15 15 15 15 15 16 15 15 15 15 18 20
7 5 3 3 1 0 1 4 5 1 3 4 4 3 8 11 8 10 8 5 3 2 2 1 3 3 4 3 5 6 8 9 12 13 19 22 23 22 21 18 18 17 17 16 13 15 17 14 13 11 10 10 9 10 11 12 12 13 13 11 9 9 10 11 12 13 13 13 13 12 12 12 12 13 13 13 12 12 12 11 12 15 15 15 14 14 14 14 15 15 15 14 14 14 14 17 18
4 3 1 2 1 1 2 5 4 1 1 3 4 3 9 11 8 9 7 5 2 2 1 2 1 1 2 3 3 5 10 14 17 19 23 23 24 22 18 18 19 17 17 16 12 16 17 14 13 11 11 10 9 10 10 11 11 12 12 12 10 9 10 11 12 13 12 11 11 11 11 12 12 12 13 13 12 12 14 13 13 14 14 14 14 14 14 14 14 14 14 13 13 14 13 15 16
2 2 1 1 2 2 3 5 3 4 4 3 4 3 8 10 7 8 6 6 4 5 5 3 1 1 3 6 5 5 8 15 20 22 23 22 23 20 17 19 19 17 17 15 13 17 16 14 13 11 11 10 10 9 9 10 10 11 12 13 11 9 8 10 11 11 10 10 10 10 12 11 11 12 12 12 12 12 13 13 12 13 13 13 13 13 13 13 13 13 13 12 13 13 13 14 14
2 3 1 1 3 3 3 5 2 5 5 5 4 4 6 6 6 8 6 6 6 5 6 4 2 1 5 7 4 5 9 16 21 21 21 22 22 19 17 18 19 18 16 13 14 18 16 14 13 11 11 10 9 9 9 9 9 10 11 13 11 10 9 10 10 9 9 9 9 10 11 10 10 11 12 12 12 11 10 11 11 11 12 12 12 11 11 12 12 12 12 11 11 12 13 14 14
1 3 1 1 3 4 4 4 3 5 6 5 4 4 3 4 5 7 6 6 6 5 5 3 2 3 5 6 2 6 13 17 20 22 21 21 20 18 17 17 18 17 15 13 14 16 16 15 13 11 10 9 9 8 9 8 9 9 10 10 10 11 11 10 9 8 8 8 9 10 9 9 10 10 11 13 12 11 9 9 10 11 11 11 11 11 11 11 10 11 10 10 10 11 13 14 13
0 3 1 2 4 4 4 3 5 6 6 5 4 4 2 3 4 5 7 6 6 6 5 4 1 2 4 5 1 9 15 15 19 22 22 21 19 17 17 18 18 16 15 13 12 15 16 15 13 12 10 9 8 8 8 8 8 8 8 8 8 10 10 9 8 8 7 7 8 9 9 9 9 9 10 12 11 11 10 10 10 11 11 10 10 9 9 9 9 9 9 10 9 10 12 12 12
2 3 1 2 4 3 1 1 6 6 4 4 5 4 3 4 4 4 6 6 6 5 5 5 0 1 3 5 4 9 12 15 20 22 22 20 18 17 16 18 17 16 16 14 12 13 15 14 13 12 11 9 8 7 7 7 7 7 7 7 7 8 8 8 7 8 7 7 7 8 8 8 8 8 9 10 10 10 10 9 9 9 9 9 8 8 8 8 8 9 9 8 8 9 11 11 11
2 3 1 3 4 3 1 2 5 4 3 4 6 5 4 3 3 3 5 6 5 2 2 3 1 2 2 4 4 5 10 18 21 22 22 20 19 17 16 18 17 16 16 14 14 12 13 14 13 12 11 10 9 7 7 7 7 6 6 6 7 7 7 6 6 7 7 6 6 6 6 6 6 7 8 9 9 9 8 7 6 7 7 7 7 8 8 8 9 9 8 7 7 9 10 10 9
1 4 2 2 4 3 0 2 4 4 2 5 6 7 5 2 1 2 3 3 3 0 2 4 3 2 1 2 4 7 15 23 22 22 22 19 19 16 15 18 16 16 16 14 15 13 12 12 12 12 11 11 10 9 8 7 7 6 5 6 6 7 7 6 6 5 6 5 5 5 5 5 5 6 7 8 8 7 6 5 5 6 5 6 7 8 8 8 9 8 7 6 7 9 9 9 8
1 3 2 2 3 2 1 0 3 4 3 5 6 7 6 2 2 3 2 1 3 0 1 3 2 3 3 3 8 17 22 25 23 23 22 20 19 15 15 17 14 15 16 14 15 14 13 13 12 12 12 11 10 9 9 9 8 7 6 5 5 6 6 6 6 5 5 5 4 4 4 4 5 6 6 7 7 7 5 4 4 4 4 6 7 7 7 8 7 7 6 7 8 9 8 8 7
1 1 2 3 3 3 4 3 3 4 4 5 7 7 7 3 2 2 1 0 3 2 2 4 5 6 6 7 17 26 26 25 24 23 22 21 18 16 14 16 15 14 16 15 15 15 14 15 14 12 12 12 10 10 9 10 10 9 7 6 5 6 6 6 6 6 6 5 5 5 6 6 7 6 4 5 6 6 5 4 3 3 3 4 6 6 6 6 6 6 6 7 8 8 7 6 5
1 1 2 4 4 4 5 4 4 6 7 6 8 7 7 6 3 2 2 1 3 3 3 5 8 8 8 12 20 26 26 25 24 22 21 20 18 17 15 16 17 15 17 16 15 16 15 15 14 12 14 13 12 12 11 10 11 10 9 7 7 6 6 6 6 7 7 7 7 7 7 6 7 6 3 4 5 5 5 4 4 3 2 3 3 5 5 6 6 6 6 8 8 7 6 5 3
2 2 1 3 3 1 1 5 4 5 9 7 7 7 5 7 7 3 3 4 5 4 4 6 7 7 7 12 19 22 23 23 23 21 20 20 19 18 17 17 18 17 18 18 17 17 17 16 14 13 15 15 13 13 12 11 11 11 10 9 9 8 7 7 5 6 7 8 9 9 7 5 5 6 4 4 4 4 7 6 5 4 2 2 2 2 4 5 6 6 7 8 9 7 6 5 4
3 2 2 4 2 3 5 8 6 4 10 9 7 6 4 6 7 4 3 6 7 6 5 7 7 8 7 10 16 19 20 21 21 20 19 20 19 19 19 18 19 19 19 20 18 18 18 18 16 15 16 16 14 13 12 11 12 10 9 9 9 8 8 8 5 6 6 7 10 10 7 7 7 8 5 6 5 3 7 8 6 5 3 2 1 2 3 4 5 6 7 9 9 6 5 3 4
2 3 2 4 1 3 6 7 6 5 7 8 7 5 3 6 6 4 5 5 6 7 7 9 9 11 11 10 15 18 18 19 20 19 19 19 18 18 19 20 20 19 19 20 20 19 20 19 18 18 17 17 15 13 12 11 13 12 11 9 9 8 9 11 8 7 7 7 10 10 7 10 9 8 7 7 5 3 5 7 7 5 3 3 3 2 2 4 6 6 7 7 7 6 4 1 3
1 4 1 4 4 3 5 6 5 5 4 7 8 6 4 5 4 5 6 4 3 3 4 8 9 13 15 13 15 16 15 16 18 18 19 19 18 18 18 20 20 19 20 21 22 21 21 20 20 19 19 19 17 16 14 11 12 14 14 12 10 9 9 12 11 10 10 10 10 9 9 11 9 7 8 8 8 6 4 4 5 4 2 3 4 2 0 3 5 4 5 5 5 4 3 4 3
1 5 1 5 5 3 3 4 4 5 4 7 6 5 5 5 3 5 6 4 3 2 3 4 5 14 20 18 16 13 13 14 17 19 20 20 20 20 19 21 21 21 22 22 22 22 22 22 21 21 20 20 19 18 16 14 14 14 14 14 12 11 10 12 12 11 12 12 11 9 9 11 10 7 7 9 10 9 6 5 5 5 5 4 6 5 4 4 5 3 1 3 2 4 7 7 7
3 4 2 4 5 5 3 3 3 6 6 2 2 5 6 5 3 4 6 3 6 5 6 7 11 18 19 15 13 13 14 16 19 21 21 22 22 22 20 20 22 22 22 22 22 22 23 23 22 22 21 21 20 19 18 17 17 15 15 15 14 14 12 12 13 12 11 12 12 11 9 9 10 8 8 9 12 10 7 8 8 9 10 7 5 8 9 8 8 8 4 4 7 8 8 8 8
5 3 2 2 4 5 4 4 3 5 4 3 4 4 5 3 0 1 6 4 7 6 7 7 10 15 14 12 12 11 13 16 18 20 20 20 21 22 20 19 21 23 23 22 22 22 24 25 23 23 23 22 21 20 20 18 18 17 17 18 16 16 14 13 13 13 12 12 12 12 10 10 10 9 10 10 12 11 10 11 11 11 11 8 8 10 12 10 9 10 8 10 9 7 6 6 6
5 3 3 3 4 4 3 4 3 3 1 2 3 3 4 4 2 2 8 6 8 8 7 6 7 9 9 10 11 11 11 14 17 19 20 20 20 21 21 20 20 23 24 23 23 23 23 25 24 24 23 23 22 21 21 20 18 18 19 19 18 18 17 14 14 15 15 13 13 13 11 12 12 10 11 10 11 12 12 13 13 12 11 11 12 12 12 9 8 9 9 9 7 7 7 6 6
1 4 5 4 4 3 1 3 4 1 1 1 1 3 3 4 1 3 6 6 9 9 7 7 7 7 8 8 9 12 12 15 19 19 19 19 19 21 22 21 20 20 22 23 23 23 23 25 25 24 24 23 23 22 22 21 20 19 20 20 19 19 19 17 16 16 17 15 14 14 13 15 14 11 12 11 11 13 14 14 13 13 12 13 13 11 10 8 8 8 8 9 8 9 8 7 8
2 7 6 4 4 4 1 3 5 2 2 2 2 3 3 3 0 5 3 6 9 9 8 7 7 7 7 8 8 10 12 16 20 19 18 19 20 21 22 24 22 19 20 23 23 23 23 26 26 25 24 23 24 24 23 22 21 20 20 20 20 19 18 19 18 17 19 17 15 14 15 17 16 13 13 12 12 13 14 14 13 13 13 13 12 10 10 10 10 10 11 11 10 9 8 8 11
2 4 4 4 3 3 3 3 4 2 1 3 1 2 1 2 7 9 5 5 6 7 7 8 7 7 7 8 7 7 10 16 19 18 19 21 21 22 23 25 25 22 21 22 22 23 23 25 27 26 26 24 24 24 23 23 22 20 20 21 20 18 18 19 19 19 19 18 17 16 17 17 16 14 14 13 13 13 13 14 13 13 13 12 11 11 11 11 12 13 14 14 12 12 11 10 12
3 4 2 4 2 3 5 4 4 3 0 2 1 1 4 7 13 10 7 6 6 6 7 7 7 7 7 7 7 7 9 13 16 18 20 21 23 23 24 24 26 26 23 22 23 24 23 24 26 27 27 26 26 24 23 23 22 21 21 21 20 19 19 19 19 20 19 17 18 19 19 17 16 16 15 14 15 14 13 13 14 14 13 12 12 12 12 12 12 13 15 15 14 14 14 13 13
3 3 2 3 2 3 5 5 6 4 0 2 3 2 5 5 6 6 7 7 8 6 7 7 7 6 6 6 7 7 8 12 16 19 21 21 23 24 24 24 25 27 25 24 24 24 24 24 25 27 28 28 28 27 24 23 23 22 21 21 21 20 20 20 21 22 20 17 18 20 20 19 19 18 16 15 16 15 14 15 15 15 14 13 14 13 12 12 12 13 14 14 14 14 15 15 14
3 3 2 3 3 3 2 2 6 4 1 4 3 3 5 2 3 5 4 5 6 7 7 7 7 7 7 6 7 6 7 12 16 19 21 22 23 23 24 25 25 27 26 25 25 25 25 25 25 26 27 28 29 29 26 23 22 22 21 22 21 21 20 20 21 23 21 19 20 21 20 20 20 20 18 17 16 16 16 16 17 16 15 15 14 14 13 13 12 12 13 14 14 14 14 15 15
3 4 3 4 4 3 2 2 2 3 2 4 4 3 3 2 3 3 3 4 4 6 6 7 7 7 7 6 6 6 6 9 12 16 20 22 23 23 24 25 26 27 27 26 26 26 26 25 26 26 27 29 29 29 29 26 22 21 21 22 22 22 22 21 21 23 23 22 23 23 22 21 19 18 18 18 18 17 17 18 18 17 16 16 16 15 14 13 13 13 14 15 15 14 14 15 15
3 3 2 4 6 4 3 1 2 3 3 4 5 4 5 4 5 5 5 6 6 6 7 7 7 7 7 6 7 7 7 7 8 15 21 22 23 23 23 24 26 27 27 27 26 28 28 27 27 27 26 27 28 27 28 28 25 22 21 21 21 22 22 22 22 23 24 24 25 25 25 23 20 18 17 17 18 19 19 20 19 18 18 18 18 17 16 14 14 15 16 16 16 15 15 15 14
5 4 3 3 5 5 4 2 3 7 4 3 6 6 9 8 5 6 6 7 7 7 7 7 7 7 7 7 7 7 8 7 9 17 22 23 24 24 23 24 25 26 26 26 26 27 29 28 28 28 26 26 27 26 26 27 26 24 22 21 21 22 23 23 22 23 25 26 27 27 26 25 23 21 20 19 19 19 20 21 20 20 21 20 20 19 17 17 16 16 17 16 16 16 17 16 14
8 8 6 4 4 4 3 2 2 6 4 4 7 7 9 10 7 7 7 8 8 8 8 7 7 6 6 6 6 7 8 7 11 19 23 24 25 25 24 24 25 26 26 26 26 26 28 28 27 29 28 26 27 26 25 26 26 26 24 23 23 23 23 23 23 23 24 26 28 28 27 27 25 24 23 22 21 22 22 22 22 22 22 21 21 21 20 20 19 17 17 17 17 16 17 16 15
6 9 8 7 5 2 2 3 1 2 3 6 8 8 8 8 9 7 7 8 8 8 8 7 7 6 6 7 7 8 8 7 11 17 21 24 26 26 26 25 26 26 26 26 27 27 28 29 28 30 29 28 28 29 28 28 29 27 27 27 26 25 24 23 23 23 23 24 26 27 28 28 26 25 25 23 22 23 24 23 23 23 23 23 23 23 22 21 20 19 18 19 19 18 17 17 16
2 4 6 6 5 2 2 3 2 0 1 5 8 8 10 9 8 7 6 8 9 9 9 9 9 8 7 8 8 9 7 6 9 13 17 22 24 26 26 26 27 27 27 27 28 29 28 29 29 30 31 30 30 30 30 30 30 29 29 29 27 25 25 25 24 23 23 22 23 25 26 27 27 26 24 22 22 23 24 25 25 24 24 24 24 24 23 22 21 20 20 20 19 19 19 19 18
3 1 3 3 3 4 3 2 2 2 1 2 3 3 7 8 7 8 8 8 8 9 11 10 10 9 8 9 9 8 7 7 8 10 13 20 23 25 26 27 28 29 29 29 29 30 30 30 30 30 30 32 31 30 30 30 30 29 27 26 26 24 23 24 23 23 23 23 23 24 24 25 25 25 25 23 23 23 23 24 26 25 24 24 24 24 23 23 22 22 22 22 20 18 19 21 21
1 1 1 2 3 4 1 1 2 1 1 1 3 4 5 6 7 8 10 11 9 8 11 10 10 11 10 10 9 9 10 9 9 8 11 17 21 23 25 26 28 28 29 30 30 30 31 32 32 30 30 31 32 31 30 30 29 27 26 23 23 23 21 20 20 21 22 22 23 24 24 24 25 25 25 24 23 23 23 24 25 25 24 24 24 23 23 23 23 23 24 24 22 20 20 22 23
2 2 1 0 3 4 2 3 4 0 1 1 2 4 6 6 8 10 9 10 10 9 10 10 9 10 10 9 9 9 9 9 10 10 9 13 18 21 25 26 27 28 28 29 31 31 32 32 33 32 31 31 32 32 30 28 26 26 25 21 19 21 20 20 21 21 20 20 22 23 24 24 25 25 24 24 23 23 23 23 23 25 24 24 25 24 24 23 23 24 25 25 24 23 23 23 22
3 3 2 1 2 7 7 5 5 1 2 2 2 1 6 5 8 10 7 8 10 9 9 10 9 8 8 8 8 7 7 7 7 8 9 12 16 20 23 24 25 27 29 29 30 31 32 32 32 32 32 31 31 32 31 29 27 26 27 25 23 24 23 22 25 25 23 22 22 22 21 21 23 24 25 26 25 25 26 25 24 25 25 25 25 24 24 24 24 24 24 25 26 25 25 24 22
3 3 2 3 6 8 8 6 3 2 2 2 2 3 4 5 4 7 4 6 8 7 7 9 8 7 7 8 8 7 7 6 5 5 6 9 13 16 19 23 25 26 28 28 28 28 29 29 30 32 32 32 30 31 31 31 29 29 30 29 28 27 25 24 24 24 23 23 22 22 21 20 20 21 23 25 27 28 27 25 23 23 24 25 25 24 24 25 25 25 25 25 26 25 25 25 25
3 3 1 5 7 7 7 5 2 1 1 1 1 2 2 4 5 6 1 4 6 6 7 9 8 8 9 9 9 8 7 7 6 6 5 6 9 12 15 19 23 24 24 25 26 26 27 27 28 30 31 31 30 30 31 33 32 31 30 29 28 27 26 23 22 21 20 19 19 20 19 18 18 18 19 20 22 23 23 22 21 22 23 24 24 24 25 25 26 25 25 25 25 25 25 26 27
2 3 1 4 5 5 6 4 2 1 3 2 4 2 1 5 6 5 3 4 6 7 9 10 10 10 9 7 7 6 5 5 5 5 5 5 8 10 11 13 15 17 19 20 23 25 25 26 26 27 29 29 30 30 31 33 33 32 30 29 28 27 25 22 19 21 21 20 19 18 16 14 14 16 17 17 18 19 20 20 21 22 23 24 24 24 25 26 27 28 27 26 26 26 26 26 27
3 3 3 6 5 4 3 2 2 3 1 3 5 4 2 5 5 4 4 4 7 8 8 5 4 5 6 6 6 6 5 4 3 4 5 5 7 8 10 10 11 13 15 17 20 22 23 24 23 25 27 27 28 29 30 32 33 32 30 29 28 26 23 20 17 18 20 21 20 20 19 17 16 17 18 18 19 20 21 22 24 25 26 26 25 25 26 28 29 30 28 27 27 27 27 26 27
5 4 5 7 5 5 4 1 4 3 2 4 4 4 3 3 5 4 4 4 5 5 3 1 3 5 6 6 6 6 5 5 4 5 5 6 6 7 9 11 11 12 14 15 17 19 21 23 23 24 25 26 27 28 29 30 32 32 30 29 28 26 24 22 18 17 17 17 19 19 19 18 17 16 17 18 19 20 21 23 24 24 24 23 24 24 25 27 28 27 26 26 27 28 27 26 27
5 4 5 5 3 4 4 3 4 1 4 3 3 2 2 3 6 3 3 2 3 2 3 5 5 5 5 5 6 6 5 5 6 5 5 6 5 6 8 10 12 12 13 15 16 18 20 22 23 23 23 24 24 26 28 28 29 30 28 27 26 25 24 23 21 19 17 17 17 18 17 16 14 12 12 13 15 15 16 18 19 19 20 21 22 23 24 25 25 25 25 26 28 28 27 27 28
2 4 6 5 2 2 1 0 1 2 4 3 3 4 0 5 7 6 7 6 4 4 3 6 7 6 6 6 6 5 5 5 5 5 5 5 5 7 10 11 12 12 12 15 16 17 19 20 22 22 22 22 22 24 26 26 27 27 26 25 24 24 23 22 21 19 18 17 17 17 16 17 17 15 13 12 12 13 14 16 17 18 19 19 20 20 22 23 23 24 25 26 26 25 26 27 29
3 5 5 5 4 2 2 3 2 3 2 3 4 2 2 4 5 8 13 10 5 5 4 5 7 7 6 5 4 3 4 4 5 4 4 5 5 8 10 10 11 10 11 13 15 15 16 18 19 21 21 21 20 22 24 24 24 25 25 23 22 22 21 20 19 19 18 17 17 18 17 17 18 18 16 15 15 16 16 17 16 16 16 16 17 18 20 20 20 21 22 23 24 25 25 26 28
3 4 4 4 4 4 4 3 2 3 1 3 4 1 3 3 3 6 8 5 4 4 3 2 1 3 4 2 2 4 5 4 5 4 4 4 5 7 8 9 9 10 11 12 13 14 14 16 18 19 20 20 19 20 22 23 22 22 23 22 20 19 20 19 17 17 17 16 16 16 16 16 16 16 16 15 15 16 16 17 17 17 16 16 17 18 19 20 19 20 21 22 23 24 25 26 28
3 2 4 2 3 4 3 2 3 4 2 1 2 2 5 5 4 6 5 4 4 2 2 0 3 4 3 2 4 5 4 5 5 4 5 5 6 7 8 9 9 10 11 12 12 13 13 15 16 18 19 19 19 20 21 21 20 19 20 20 19 17 18 19 17 16 15 14 13 13 12 12 13 13 12 12 11 12 13 13 15 16 16 17 17 18 19 20 20 20 20 21 21 21 22 24 25
1 2 3 4 3 6 5 0 0 3 0 2 3 3 5 3 5 8 6 5 4 2 2 4 5 5 4 4 5 5 5 5 4 4 5 6 7 8 8 10 10 10 11 11 12 12 13 15 16 18 19 18 18 19 20 19 18 18 18 19 18 17 18 18 17 15 14 13 12 11 10 9 9 8 8 8 9 10 10 10 12 13 14 15 15 16 17 18 19 19 20 20 20 20 20 21 22
4 2 5 3 2 3 3 1 1 1 2 3 4 5 4 2 4 6 1 4 5 4 5 6 6 6 5 5 5 5 6 5 5 6 5 6 8 9 9 9 9 10 11 11 11 11 12 14 15 17 18 18 17 17 18 18 17 17 17 17 17 16 17 17 16 14 13 12 11 10 10 9 8 8 9 10 11 11 11 11 12 12 12 12 13 12 13 15 16 17 18 18 18 18 19 20 21
3 3 3 3 2 1 1 3 2 2 3 3 3 6 4 4 4 2 1 5 7 7 6 5 6 6 6 5 5 6 5 5 5 6 5 5 8 10 10 11 11 11 11 11 12 11 12 11 11 12 15 16 16 16 16 16 15 16 17 18 17 16 16 16 14 12 10 9 8 8 9 9 10 11 12 13 13 13 13 12 12 12 12 13 13 13 13 14 14 15 16 17 18 18 19 20 20
1 2 2 2 1 3 3 3 3 3 3 3 3 3 3 5 6 6 7 7 7 7 5 5 6 6 6 5 6 6 5 5 5 5 6 6 8 10 11 12 12 12 11 12 12 12 13 12 10 11 12 13 14 14 15 15 13 13 14 15 14 13 12 10 9 9 9 8 8 8 9 9 10 11 11 11 11 11 11 10 11 11 12 12 12 13 14 14 14 14 15 16 17 18 18 19 19
2 3 4 2 1 2 1 2 2 4 3 3 3 3 4 6 5 7 9 6 6 8 6 5 5 5 5 5 6 6 5 5 4 5 5 6 9 11 11 11 11 11 12 12 13 13 13 13 12 13 13 13 13 13 13 14 13 12 12 12 12 11 10 10 9 10 10 10 10 10 10 9 9 9 9 9 8 8 9 9 9 10 10 10 11 12 12 13 13 12 13 13 14 15 16 17 18
5 4 7 7 5 4 2 2 2 3 2 3 4 3 5 5 2 2 6 6 5 6 7 7 5 6 6 5 5 5 5 5 4 5 5 6 9 11 11 12 12 12 13 13 13 13 13 13 13 13 14 14 14 13 13 13 13 13 13 13 13 13 12 12 12 11 11 10 9 9 9 9 8 7 6 6 6 6 7 7 8 8 8 9 10 11 11 11 11 10 11 12 12 14 16 17 18
Wind_Direction
309 308 308 303 301 313 296 250 270 259 223 263 177 118 75 82 105 108 114 143 105 67 50 69 63 45 31 10 77 82 45 42 42 30 108 140 146 141 130 129 134 134 138 140 135 131 128 125 116 110 103 93 87 88 90 97 102 99 91 77 77 86 90 92 94 95 93 88 84 81 79 78 75 70 69 72 68 63 68 71 68 69 69 69 69 70 70 70 70 70 71 72 74 77 78 80 88
307 301 301 299 288 300 296 215 264 256 212 242 86 88 109 115 130 126 136 139 96 100 101 80 70 58 69 37 89 90 55 57 75 84 104 130 136 128 132 135 134 136 139 137 134 133 132 127 122 117 107 99 93 93 95 100 105 99 91 81 77 85 91 94 95 95 92 89 87 85 82 79 77 75 74 73 69 65 69 71 69 71 71 70 71 70 70 71 71 71 72 73 74 75 77 77 85
307 302 307 305 268 236 285 276 250 269 247 201 85 101 135 130 132 118 106 97 98 120 105 91 95 51 6 95 66 66 80 84 95 100 114 134 136 133 140 136 135 137 134 133 134 137 135 131 128 121 111 104 98 99 100 101 104 99 96 86 73 83 92 97 98 97 95 92 87 86 84 81 79 78 76 73 76 75 73 73 72 72 73 72 71 71 71 70 71 71 72 73 73 74 76 78 86
308 302 307 315 267 213 265 241 225 264 281 99 99 156 149 109 95 90 93 97 107 125 113 131 127 22 357 60 62 74 98 92 106 115 126 147 143 139 143 136 135 134 133 136 138 141 138 136 132 123 116 109 102 102 102 101 103 101 100 93 80 84 92 98 100 100 98 94 90 89 86 82 81 80 75 69 78 84 79 76 77 75 74 75 73 74 74 73 73 72 73 73 74 75 76 82 92
312 302 287 301 292 236 259 255 250 263 316 27 111 162 133 105 100 96 102 105 120 134 136 171 133 54 46 31 30 81 103 99 116 122 118 137 142 141 142 136 135 136 136 137 142 146 142 140 136 129 122 114 107 103 105 105 106 106 102 98 96 91 92 99 101 101 100 97 95 91 87 85 83 81 76 69 74 79 73 71 79 83 80 78 76 76 76 76 75 74 76 75 77 78 79 91 97
314 299 263 259 265 13 315 271 259 244 342 16 98 136 115 107 110 110 105 97 108 114 107 171 140 109 117 50 54 48 38 118 127 124 120 132 141 143 142 136 134 137 137 139 148 150 144 144 140 134 128 120 111 105 109 109 109 111 106 104 107 96 93 98 101 103 101 99 96 91 90 89 87 84 78 73 74 73 67 63 72 82 82 79 76 75 75 75 76 76 77 77 81 81 85 98 99
316 304 228 225 238 61 261 262 255 209 340 7 83 109 104 107 117 115 111 100 72 43 13 286 156 116 121 112 83 44 31 102 125 126 129 135 140 143 143 137 134 138 137 140 151 150 147 147 143 136 131 124 114 111 111 111 111 112 111 108 104 95 93 98 101 101 99 99 98 94 92 91 90 87 81 78 76 74 77 76 72 75 77 78 76 75 73 73 74 75 77 78 83 84 89 100 101
305 309 199 207 213 190 246 260 259 126 5 13 63 62 103 119 131 125 136 140 145 171 183 278 172 86 143 133 103 72 59 92 116 124 133 137 140 143 143 138 137 137 136 143 152 150 149 148 145 138 133 127 119 117 113 115 113 112 112 107 99 94 95 96 99 98 97 102 104 98 93 91 91 89 84 83 80 72 75 76 71 69 70 72 74 75 75 74 75 74 75 77 85 86 91 102 103
233 245 304 204 212 199 235 253 240 111 116 93 77 53 104 132 140 133 154 141 144 163 165 203 163 104 134 99 89 111 89 101 117 126 134 139 141 141 141 142 139 135 140 147 150 151 151 150 148 142 136 130 126 121 117 120 115 113 115 111 106 103 102 99 99 99 101 108 110 100 93 90 90 92 90 88 86 78 76 77 76 74 74 74 76 78 77 76 75 75 75 76 85 88 93 105 105
208 207 270 218 241 204 217 253 225 101 102 91 96 102 107 141 144 139 154 128 138 147 146 163 127 162 128 104 101 122 124 123 124 130 137 141 142 141 144 145 139 137 143 146 150 155 154 152 151 146 139 132 130 125 121 122 117 117 120 121 115 109 107 108 107 105 108 111 106 98 93 90 90 93 94 92 87 85 87 86 85 81 79 78 79 80 77 78 78 80 79 78 86 90 96 105 104
227 209 226 230 260 216 211 227 158 105 110 95 93 112 110 148 144 146 143 125 142 122 114 145 143 206 137 101 90 121 134 135 131 137 141 143 143 143 145 144 142 142 143 142 152 160 157 156 156 150 144 137 132 128 126 124 122 121 124 127 123 116 110 113 116 110 112 113 106 101 96 93 94 95 98 100 92 90 92 84 82 81 79 79 81 82 80 82 83 85 83 79 86 91 96 102 100
279 226 177 204 245 224 234 213 132 106 120 125 122 126 149 153 149 159 137 127 146 127 144 189 159 215 145 100 121 133 140 145 139 142 144 144 145 144 143 144 146 144 142 142 150 161 161 161 162 156 149 144 136 134 131 125 124 124 124 125 128 128 120 116 116 114 114 113 113 111 108 106 106 104 103 107 104 97 91 84 85 85 85 85 85 86 85 84 83 85 85 81 86 92 96 99 99
261 253 172 221 256 230 273 6 102 106 133 150 137 141 178 158 168 169 131 137 155 149 167 184 309 342 110 92 124 141 148 152 144 145 146 145 146 145 142 145 148 146 143 145 148 156 163 165 167 164 156 152 145 143 139 129 126 124 126 125 126 134 135 127 115 115 111 106 112 116 119 120 119 113 105 110 113 102 97 98 97 93 89 87 83 81 81 82 84 85 86 84 85 96 98 99 101
270 291 263 227 273 251 151 64 106 131 156 129 120 143 168 151 190 173 129 147 148 165 143 120 24 14 106 116 140 157 154 153 147 147 147 144 148 146 143 148 153 153 148 147 152 154 162 168 171 168 161 160 159 159 154 140 134 129 129 128 124 129 139 140 124 114 106 103 105 109 117 119 121 119 107 108 119 113 109 111 97 92 87 81 80 79 81 82 85 85 87 89 93 105 105 102 102
312 309 292 240 279 266 26 77 144 161 137 114 129 150 146 79 310 71 85 133 104 120 86 68 14 23 79 155 167 166 151 151 149 147 147 145 148 148 146 154 156 158 159 153 156 159 159 168 173 171 168 168 170 172 169 157 148 142 139 135 128 127 133 138 138 123 108 105 98 99 104 108 122 128 114 108 124 130 122 114 93 91 84 81 88 85 86 85 86 87 87 90 97 108 108 105 104
340 316 295 265 262 240 265 123 144 158 133 127 151 147 132 67 22 54 22 96 97 135 80 71 19 51 32 25 125 141 146 149 149 148 148 147 149 149 148 159 161 160 168 165 162 165 164 171 177 174 173 172 173 177 179 173 162 155 153 147 137 131 129 133 138 136 122 109 100 101 98 100 120 135 131 120 130 140 138 130 106 99 86 87 97 92 91 91 91 91 89 83 89 102 103 102 104
2 305 272 262 232 189 196 184 134 137 122 133 159 151 139 126 47 72 238 257 106 142 95 74 59 70 62 70 116 132 142 147 148 151 148 145 149 152 153 165 169 162 169 175 172 172 171 176 182 176 172 175 173 175 181 179 173 168 166 163 153 143 134 135 137 140 137 122 111 105 95 88 103 122 135 134 142 151 156 156 137 120 105 106 108 108 109 105 105 102 95 86 87 94 92 95 101
112 212 230 250 236 196 188 161 127 133 132 147 162 165 152 142 143 111 156 168 112 140 138 93 70 72 86 102 120 131 141 146 151 157 150 148 154 158 164 173 175 168 172 182 180 177 177 180 187 176 169 180 178 176 182 179 178 179 176 176 174 164 149 148 148 150 146 133 118 101 93 79 97 126 141 146 161 169 175 182 177 179 153 134 116 119 120 113 111 102 95 93 93 87 78 76 87
171 227 227 249 266 309 96 95 81 117 139 150 155 179 179 149 156 133 156 179 154 168 177 144 107 92 99 117 128 134 142 150 158 162 156 158 165 165 170 176 177 175 177 186 184 180 182 182 189 177 168 183 184 178 184 179 181 186 183 186 187 180 166 158 156 155 147 140 125 107 115 111 128 170 185 155 169 180 181 192 192 205 200 144 110 120 122 115 106 97 98 99 95 84 75 55 42
209 216 250 250 222 30 35 73 61 76 129 144 148 180 190 140 143 137 186 186 173 198 189 166 156 144 143 139 141 145 150 157 165 168 164 169 174 170 171 175 180 180 180 187 186 183 185 185 188 183 174 183 188 181 182 180 180 185 187 191 193 194 178 156 158 157 148 151 130 116 149 168 176 200 205 176 186 188 180 195 202 212 216 193 180 161 156 143 120 112 111 105 101 90 88 48 11
214 195 230 277 229 67 42 63 54 50 117 140 137 153 165 132 129 147 193 194 180 211 201 183 179 155 153 157 152 157 161 164 172 175 172 176 179 176 175 178 183 184 181 186 189 187 188 188 188 187 182 183 186 181 183 181 176 179 187 191 191 200 183 159 171 169 165 181 138 129 185 190 192 209 211 191 182 190 182 192 199 204 200 186 185 154 160 163 141 132 123 110 102 88 106 186 322
263 240 227 360 348 65 60 51 30 10 103 122 128 154 147 118 130 171 198 208 186 233 194 178 178 157 155 160 156 161 169 172 178 181 179 180 181 181 179 179 182 185 186 188 190 189 189 190 190 190 188 187 185 183 186 185 178 181 187 190 185 189 180 165 180 176 178 201 155 153 210 194 191 212 209 178 166 207 208 163 168 178 187 165 156 127 195 170 147 149 132 112 94 89 152 193 227
232 257 137 33 12 60 57 41 356 347 88 119 139 153 122 125 173 192 213 210 124 39 66 86 110 146 153 154 155 163 173 179 185 187 185 184 183 185 184 177 179 184 187 190 190 190 190 191 192 191 191 191 188 185 188 188 184 185 188 189 182 183 182 171 185 183 186 203 170 174 213 188 185 210 201 161 166 212 210 159 158 177 217 215 154 153 240 216 165 208 210 100 136 199 204 203 203
223 258 98 58 44 64 46 52 346 4 65 83 106 121 125 165 190 182 217 188 114 84 67 63 86 125 141 147 158 170 176 183 190 192 191 189 187 188 187 178 179 184 185 189 191 192 192 192 193 192 193 193 191 187 188 192 190 187 192 192 183 186 190 177 186 192 194 203 184 184 204 185 185 205 201 172 179 203 197 182 178 188 215 231 177 172 224 231 184 193 215 205 216 221 221 219 212
223 252 83 94 76 83 79 80 35 34 55 360 49 102 115 139 30 155 223 196 131 116 88 86 101 123 138 149 165 172 177 185 188 193 196 195 191 190 192 186 181 182 185 189 191 193 193 192 193 192 194 194 193 191 190 196 196 189 194 197 188 189 193 184 186 196 201 204 191 190 203 194 190 202 205 197 194 195 195 193 188 197 206 209 204 197 221 233 196 187 203 216 223 226 236 243 228
218 203 97 111 102 99 102 98 83 49 31 18 75 126 73 58 9 252 232 205 141 124 108 112 122 137 151 155 169 173 176 185 186 191 196 196 194 193 197 196 188 183 185 189 191 193 193 191 193 193 193 195 195 194 192 196 197 192 197 202 197 195 195 190 188 195 205 210 198 191 200 197 191 204 213 209 205 197 200 204 197 202 203 201 212 216 227 232 201 194 209 218 222 220 229 243 237
221 131 93 98 103 105 97 88 111 99 90 132 176 152 85 44 30 250 233 177 138 132 133 140 141 155 169 163 171 177 179 185 186 187 190 194 195 194 197 200 200 191 185 188 191 193 192 191 193 194 194 195 195 196 195 197 199 197 199 205 204 203 203 200 199 199 204 213 206 194 198 197 188 203 219 215 210 205 208 214 208 206 208 211 219 223 228 224 198 201 216 216 217 223 228 234 239
88 121 93 99 112 102 116 107 134 172 105 195 247 96 93 61 180 237 214 148 144 147 154 162 164 167 175 175 173 177 183 187 186 185 187 192 195 194 196 199 203 199 189 189 192 193 194 193 193 194 195 195 196 197 197 198 201 200 201 206 207 207 208 208 210 207 206 210 207 201 206 201 187 196 218 219 214 213 217 222 218 215 217 221 227 224 223 220 201 202 216 215 213 221 224 227 241
123 151 116 133 145 128 171 138 143 186 133 199 218 34 147 168 224 224 179 154 156 160 172 172 181 182 178 181 175 176 185 183 183 187 191 192 194 196 197 198 200 201 197 193 193 194 195 197 196 195 195 197 198 198 199 199 200 202 203 206 209 210 209 211 215 212 210 214 209 205 211 206 195 198 209 217 218 218 224 227 222 220 223 227 231 226 225 228 215 211 220 222 218 219 219 222 239
162 219 185 142 162 195 180 132 125 147 121 198 142 336 232 217 227 209 153 158 154 174 198 180 182 191 189 185 173 176 186 182 181 190 195 193 194 197 199 199 199 201 200 196 195 195 195 197 198 197 196 199 201 199 200 201 200 203 205 207 212 214 211 210 213 215 216 222 217 209 208 204 201 202 204 216 221 219 224 228 223 223 225 229 234 234 235 239 233 228 232 235 232 230 232 231 238
168 207 240 171 163 185 160 134 152 151 326 215 153 220 256 253 221 167 141 161 156 182 207 189 188 190 193 190 175 177 187 189 187 190 195 195 195 197 199 200 200 201 200 198 198 197 196 197 198 198 197 199 202 200 200 203 201 202 205 208 211 214 215 211 212 217 219 221 220 216 214 206 200 202 206 215 222 221 222 226 227 228 230 232 238 245 249 250 246 241 241 244 243 240 242 240 241
186 173 225 208 178 165 144 155 169 151 210 211 178 225 255 285 112 118 133 166 168 194 203 193 196 191 190 188 180 182 187 192 192 192 196 198 197 197 199 200 200 200 200 199 199 198 197 197 198 200 199 199 203 203 200 203 203 203 207 209 212 216 218 217 214 215 216 218 223 224 226 220 206 201 205 211 219 224 223 227 232 233 234 238 244 252 257 255 249 245 242 245 246 243 245 245 242
216 182 178 197 197 169 164 256 209 142 130 200 222 254 244 204 151 140 152 173 188 217 220 202 196 194 191 183 184 192 190 190 193 196 197 198 199 199 199 200 200 201 200 199 199 198 197 198 199 200 202 202 203 204 201 203 203 204 209 210 213 218 220 220 216 214 215 222 229 230 231 233 221 210 211 211 213 220 222 226 231 234 236 241 247 252 259 257 247 244 243 243 245 241 244 249 245
201 192 213 212 195 168 156 245 247 179 172 208 219 247 259 232 176 175 190 187 186 216 236 222 204 196 190 184 186 193 194 191 193 198 199 199 199 200 200 200 200 201 201 200 199 199 197 198 200 200 203 204 202 204 203 202 203 204 210 212 214 219 222 222 220 218 217 219 227 232 233 237 237 234 235 226 218 220 222 225 230 234 238 242 245 248 255 259 249 243 243 243 246 242 240 246 249
167 176 224 219 196 196 177 177 183 174 194 225 194 222 254 250 203 185 200 194 186 204 226 234 224 204 194 194 195 197 198 200 197 198 201 201 199 199 199 198 199 199 200 200 199 200 198 198 201 200 201 203 201 203 203 201 202 207 210 211 214 219 222 224 224 224 222 220 222 228 233 240 242 244 247 242 235 232 228 228 232 236 239 243 244 244 248 254 251 245 242 242 245 248 245 243 250
176 173 195 193 192 218 159 116 167 161 172 226 205 219 241 245 236 206 191 193 195 199 207 225 230 216 205 202 206 207 206 210 200 198 202 202 200 199 197 197 196 197 198 197 197 199 198 198 200 201 201 202 200 200 201 199 201 207 210 210 213 215 217 223 226 227 227 225 225 226 233 240 241 244 246 242 242 243 238 235 236 237 239 242 242 243 246 250 252 248 246 244 243 248 253 248 246
188 170 192 194 176 196 114 101 215 166 166 217 222 236 244 246 247 229 189 186 198 200 199 210 218 216 211 208 213 214 214 214 200 198 200 200 201 200 197 196 195 195 196 196 196 196 197 197 199 201 200 201 200 197 199 199 200 202 205 208 211 213 214 218 224 227 228 230 230 229 232 236 237 242 243 240 243 246 243 241 240 238 239 242 244 246 250 252 253 255 254 249 244 244 251 253 248
315 161 184 193 171 151 61 87 188 166 95 223 225 233 247 249 250 252 218 193 200 200 198 205 210 211 212 210 217 219 216 206 194 196 195 192 196 197 195 196 194 194 195 196 198 197 197 197 199 202 200 199 200 199 198 199 201 201 203 207 209 212 214 215 219 224 229 232 233 231 231 232 235 239 238 239 245 248 245 242 242 242 242 246 247 248 250 251 250 253 253 248 244 245 249 255 252
343 32 152 184 166 121 63 58 141 131 114 269 273 248 254 256 251 249 237 227 220 202 199 202 202 206 212 209 212 216 213 205 196 194 188 184 186 190 192 194 196 198 199 199 201 200 199 199 200 202 202 201 201 201 201 201 203 203 204 206 207 209 213 217 221 225 230 234 235 234 233 233 234 235 235 238 242 245 247 243 241 243 244 247 248 247 247 247 247 249 249 248 244 244 248 253 250
349 355 105 168 153 124 128 207 149 157 182 17 351 320 276 268 270 254 235 235 234 215 209 206 201 205 209 208 207 206 204 206 203 193 186 185 185 187 190 193 197 199 201 202 202 202 202 203 203 203 203 203 203 203 204 205 205 205 207 209 210 211 213 217 221 224 226 230 234 233 234 234 232 230 232 236 240 245 248 244 240 239 240 246 249 247 245 246 249 249 249 248 243 240 245 251 250
243 232 135 201 157 117 86 153 147 58 311 78 13 326 288 237 236 248 236 226 229 222 214 215 215 209 204 207 210 206 202 202 200 195 189 188 190 193 194 196 198 199 201 203 204 204 205 206 206 205 204 205 205 204 204 204 203 203 203 205 208 209 211 213 213 215 219 224 229 230 232 233 230 228 230 235 240 246 247 244 242 238 237 243 247 247 250 253 254 253 252 249 246 243 246 253 252
234 207 173 20 121 112 103 137 143 90 279 251 125 346 291 248 220 238 229 211 225 219 208 217 221 212 202 208 216 214 213 208 196 192 187 187 193 196 198 200 200 201 204 205 206 207 207 207 207 206 205 206 206 206 203 201 199 197 195 194 194 196 200 206 209 211 215 219 225 229 231 231 230 229 231 234 238 241 243 245 247 244 240 242 246 251 255 257 257 257 256 251 249 250 250 251 251
213 229 191 118 100 108 125 154 152 135 225 258 112 161 269 313 295 266 211 177 217 218 211 223 223 217 212 214 222 219 221 226 217 210 193 184 186 186 192 200 203 207 209 208 208 208 208 208 208 208 207 206 206 205 204 201 198 197 195 195 194 194 198 204 209 213 217 221 225 230 234 234 234 234 233 233 235 238 242 246 249 247 242 242 246 252 258 261 261 260 257 252 251 253 250 248 250
205 278 319 120 114 124 144 153 162 170 127 6 358 168 250 298 287 280 182 157 224 227 222 230 223 219 216 213 217 213 211 210 204 212 216 206 202 192 191 199 205 210 212 210 209 208 208 208 209 209 207 206 205 204 204 202 200 198 197 198 200 202 205 207 210 212 214 217 220 225 231 232 232 231 230 228 230 236 240 242 246 246 246 247 250 254 259 262 261 257 253 251 252 254 253 253 254
223 270 3 103 111 130 145 148 169 101 65 328 269 203 253 274 257 250 204 197 241 238 230 233 222 212 202 188 182 178 168 153 153 179 200 212 221 220 211 205 205 208 210 212 212 210 207 207 207 207 206 205 204 203 203 202 201 200 199 199 202 205 209 211 213 212 212 212 212 214 217 220 225 225 225 226 229 233 237 241 246 250 252 253 254 257 260 260 258 256 254 255 258 260 260 259 255
202 201 77 71 70 72 96 147 144 94 72 247 230 187 198 277 260 218 196 218 237 236 235 238 208 172 150 136 136 133 125 126 142 176 200 214 216 219 218 209 201 201 204 207 209 207 205 203 202 203 203 203 203 202 202 202 201 201 200 200 201 201 202 203 206 208 211 215 217 218 218 222 227 229 231 235 239 240 242 244 245 247 249 250 253 258 261 259 258 257 259 264 266 264 263 260 257
139 137 87 65 50 42 37 49 83 80 262 253 223 185 163 281 269 208 188 222 230 231 228 109 78 98 112 120 131 137 144 165 186 195 203 206 207 211 206 203 202 200 200 199 200 201 201 201 201 201 201 202 202 202 201 201 200 200 200 200 200 199 198 197 197 198 202 209 215 218 221 225 229 234 236 238 241 243 243 244 243 245 249 252 255 259 261 261 261 263 267 270 269 267 266 265 263
107 118 113 80 32 32 27 11 52 101 244 269 310 338 110 227 261 233 201 217 182 174 153 140 132 127 134 142 145 151 161 178 189 199 194 176 180 204 205 205 205 204 205 202 200 200 199 200 200 200 200 200 201 201 200 200 199 199 200 200 201 201 201 201 200 199 199 203 207 208 211 213 215 222 228 231 234 236 241 246 248 249 252 254 255 258 262 264 266 267 268 266 266 266 265 264 262
90 128 124 107 78 57 56 271 122 212 240 259 302 343 282 232 256 263 269 268 208 182 151 141 147 147 148 153 149 156 176 185 181 183 183 170 170 190 200 201 196 198 206 202 198 197 196 197 198 199 199 199 200 199 198 200 199 199 200 200 202 203 203 203 202 202 202 205 205 203 204 206 209 213 218 223 226 231 241 248 251 252 251 253 255 259 263 264 265 265 265 265 264 265 266 266 264
176 153 139 136 137 131 192 203 193 217 255 295 281 291 266 270 273 249 254 259 208 161 137 137 149 150 152 158 156 182 212 188 161 166 182 185 175 176 185 186 183 189 194 190 189 190 190 192 193 195 196 195 197 197 196 197 197 198 199 198 200 200 199 199 201 202 204 208 209 209 213 217 220 221 224 229 231 236 242 246 251 256 257 258 260 263 265 265 268 270 270 270 269 268 268 268 267
190 162 138 154 165 161 183 181 176 196 209 324 300 265 195 223 260 237 234 227 164 135 110 107 160 181 170 179 216 241 229 174 150 166 169 155 148 152 161 163 167 173 173 174 178 180 182 184 186 189 189 190 191 191 192 193 194 195 196 195 194 195 195 195 199 203 206 209 211 214 219 223 225 227 230 236 239 240 243 245 249 253 257 262 266 268 269 270 270 271 271 272 272 272 268 266 266
215 136 113 185 202 144 136 159 166 150 107 297 259 245 217 212 265 267 237 199 164 124 88 20 276 247 194 200 239 230 193 151 149 158 139 125 129 137 143 146 150 154 158 162 166 169 172 174 177 181 181 182 183 183 184 186 187 188 190 190 187 189 193 195 198 202 203 204 205 210 217 222 225 229 233 239 245 249 251 250 249 249 251 255 260 265 269 272 271 271 272 274 275 276 273 271 270
176 109 154 201 164 116 113 173 85 103 153 237 187 247 280 287 292 279 242 200 174 136 218 230 235 222 188 209 229 199 151 140 143 132 126 132 134 132 137 143 147 149 153 157 158 161 164 165 170 173 172 173 177 179 180 179 179 181 184 185 186 189 191 191 194 198 199 197 197 205 215 222 231 237 237 240 245 251 255 258 261 262 261 258 260 264 269 274 277 277 276 277 280 281 281 279 278
118 149 192 175 88 87 117 148 18 70 237 248 175 210 264 264 275 299 257 179 195 199 213 213 198 186 197 227 214 164 138 139 130 112 111 126 132 130 128 131 138 142 143 146 148 149 154 161 168 171 171 173 174 175 176 178 180 181 182 182 185 189 189 189 191 193 199 200 197 203 210 217 229 235 235 236 237 238 242 252 263 271 274 273 274 271 267 272 279 282 282 281 282 283 281 280 280
126 172 186 116 120 197 144 166 185 166 211 267 235 218 228 204 220 285 228 201 208 203 196 188 186 191 207 217 179 137 122 119 114 114 116 117 123 127 125 120 121 125 128 134 138 136 138 146 160 169 175 178 175 169 168 173 178 180 182 184 186 191 193 193 191 185 188 194 197 206 210 215 223 228 233 236 240 244 249 257 263 266 268 268 270 269 264 264 269 275 279 280 281 280 279 280 282
40 86 70 55 134 169 165 184 179 149 182 248 272 236 236 229 211 206 222 218 185 176 184 184 190 196 196 181 154 137 124 112 106 113 118 107 106 111 116 120 119 120 121 124 129 130 129 129 133 146 157 162 161 159 160 164 169 172 176 180 182 185 184 181 176 169 173 187 199 208 212 218 223 228 235 239 245 252 258 266 271 274 275 273 271 270 267 264 262 266 272 279 284 286 286 289 291
161 132 150 166 127 113 125 241 174 137 169 216 245 260 259 248 214 196 213 212 154 152 164 172 172 159 152 146 145 145 131 120 109 107 109 107 108 109 113 119 119 120 121 120 123 126 128 126 124 130 137 140 143 148 152 156 158 157 158 159 160 161 160 162 164 169 178 190 200 207 210 215 221 228 237 243 252 262 270 277 280 281 282 278 274 272 272 270 268 270 274 279 287 290 291 294 296
179 178 178 181 169 133 126 248 212 153 170 189 192 252 271 259 263 161 174 171 153 154 157 165 165 144 139 137 140 141 133 134 127 110 105 103 110 116 119 121 120 120 121 120 121 122 125 127 124 126 131 135 139 143 148 152 152 150 151 153 158 163 167 171 174 177 183 189 197 205 211 215 220 232 249 263 275 283 287 287 286 285 281 275 274 275 277 277 277 281 282 282 283 285 287 289 291